📊 Raw Sensor Data

Showing records 39801 to 39825 of 84,952 total

ID Distance (ft) Battery V Battery A Int Temp (°F) Int Humid (%) Ext Temp (°F) Solar V RSSI SNR Time Stamp
45164 15.0 4.09 0 103 43 96 5.10 -70 8 07/02/2025 02:45 PM
45163 15.0 3.88 0 102 43 95 5.10 -72 7 07/02/2025 02:30 PM
45162 15.1 3.95 0 102 42 95 5.10 -72 8 07/02/2025 02:15 PM
45161 15.0 3.88 0 100 42 94 5.10 -74 8 07/02/2025 02:00 PM
45160 15.1 3.88 0 99 42 91 5.10 -75 8 07/02/2025 01:45 PM
45159 15.0 3.89 0 98 43 92 5.10 -72 7 07/02/2025 01:30 PM
45158 15.0 3.88 0 96 43 91 5.10 -72 7 07/02/2025 01:15 PM
45157 15.1 3.88 0 95 44 91 5.20 -74 7 07/02/2025 01:00 PM
45156 15.1 4.06 0 94 43 89 5.10 -75 8 07/02/2025 12:45 PM
45155 15.1 3.88 0 93 43 90 5.10 -73 8 07/02/2025 12:30 PM
45154 15.1 3.94 0 90 43 91 5.20 -72 7 07/02/2025 12:00 PM
45153 15.1 3.89 0 90 43 93 5.10 -73 7 07/02/2025 11:45 AM
45152 15.1 3.89 0 88 43 91 5.10 -74 7 07/02/2025 11:30 AM
45151 15.2 3.89 0 86 43 90 5.10 -72 8 07/02/2025 11:15 AM
45150 15.2 4.01 0 85 42 88 5.10 -72 8 07/02/2025 11:00 AM
45149 15.2 4.09 0 83 42 86 5.10 -71 7 07/02/2025 10:45 AM
45148 15.2 3.89 0 81 42 83 5.10 -71 7 07/02/2025 10:30 AM
45147 15.1 3.89 0 79 43 83 5.10 -72 8 07/02/2025 10:15 AM
45146 15.1 4.11 0 77 44 79 5.10 -70 7 07/02/2025 10:00 AM
45145 15.2 3.91 0 76 44 76 5.10 -72 8 07/02/2025 09:45 AM
45144 15.2 3.89 0 76 44 74 5.10 -72 7 07/02/2025 09:30 AM
45143 15.2 3.89 0 75 44 77 5.10 -73 8 07/02/2025 09:15 AM
45142 15.2 3.89 0 74 44 78 5.10 -70 7 07/02/2025 09:00 AM
45141 15.2 4.07 0 73 44 71 5.10 -71 7 07/02/2025 08:45 AM
45140 15.2 3.89 0 73 44 76 5.10 -71 7 07/02/2025 08:30 AM